[[{"header":{"parameterUnit":"m.s-1","parameterCategory":1,"la1":30.2991,"la2":30.254,"lo1":-89.0895,"lo2":-89.0444,"dy":0.0017,"dx":0.0017,"nx":28,"ny":28,"refTime":"2025-09-17T03:00:00:Z","depth":0,"parameterNumber":2,"parameterNumberName":"U-component_of_WINDS"},"data":[0,0,0,0,0,0,0,0,0,0,0,0,0,0,0,0,0,0,0,0,0,0,0,0,0,0,0,0,0,0,0,0,0,0,0,0,0,0,0,0,0,0,0,0,0,0,0,0,0,0,0,0,0,0,0,0,0,0,1.0259,1.0259,0,1.0252,1.0252,1.0252,1.027,1.027,1.0271,1.0271,1.0261,1.026,1.0259,0,0,0,0,0,0,0,0,0,0,0,0,0,1.0287,1.0287,1.0259,1.0259,1.0259,1.0252,1.0252,1.0252,1.027,1.027,1.0271,1.0272,1.0261,1.026,1.0259,0,0,0,0,0,0,0,0,0,0,0,0,0,1.0277,1.0286,1.0259,1.0267,1.0268,1.0252,1.0252,1.0252,1.027,1.027,1.0271,1.0272,1.0261,1.026,1.0259,1.0234,0,0,1.0255,1.0254,0,0,0,0,0,0,0,0,1.0277,1.0276,1.0266,1.0267,1.0268,1.0263,1.0258,1.0245,1.0269,1.0269,1.0272,1.0273,1.026,1.0259,1.0256,1.0233,1.0233,1.0255,1.0254,1.0254,1.0253,0,0,0,0,0,0,0,1.0278,1.0276,1.0256,1.0266,1.0267,1.0271,1.027,1.0255,1.026,1.0269,1.027,1.0269,1.0261,1.0257,1.0256,1.0232,1.0255,1.0254,1.0253,1.0253,1.0188,1.0187,0,0,0,0,0,0,1.0278,1.0277,1.0257,1.0256,1.0275,1.0269,1.0269,1.0263,1.026,1.026,1.0269,1.027,1.0259,1.0257,1.0255,1.0225,1.0254,1.0252,1.0252,1.0189,1.0188,1.0187,0,0,0,0,0,0,1.0279,1.0276,1.0257,1.0267,1.0265,1.0268,1.0262,1.0263,1.0259,1.026,1.026,1.0264,1.0259,1.0257,1.0239,1.0225,1.0252,1.0251,1.019,1.0189,1.0188,1.0165,0,0,0,0,0,0,1.0279,1.0276,1.0267,1.0266,1.0264,1.0241,1.0261,1.0262,1.0257,1.0259,1.0255,1.0256,1.026,1.0241,1.0238,1.0224,1.025,1.0192,1.019,1.0188,1.0167,1.0163,1.016,0,0,0,0,0,1.028,1.0261,1.0267,1.0264,1.0253,1.024,1.0239,1.0245,1.0256,1.0246,1.0247,1.0256,1.0228,1.0239,1.0236,1.0221,1.0192,1.019,1.0188,1.0169,1.0164,1.016,0,0,0,0,0,0,1.0258,1.0261,1.0267,1.0247,1.0243,1.0244,1.0232,1.024,1.0232,1.0234,1.0241,1.024,1.0221,1.0219,1.0232,1.0197,1.0212,1.0209,1.0198,1.0193,1.019,1.019,1.0249,0,0,0,0,0,1.0251,1.0242,1.0244,1.0226,1.0224,1.0228,1.0223,1.0228,1.0224,1.0223,1.0222,1.0217,1.0207,1.02,1.0191,1.0167,1.0166,1.0156,1.0152,1.0149,1.0146,1.0133,1.0128,1.018,1.018,1.018,0,0,1.0236,1.0236,1.023,1.0221,1.0219,1.0209,1.0227,1.0214,1.0206,1.022,1.0203,1.0203,1.0198,1.0177,1.0167,1.0175,1.0132,1.0146,1.0144,1.0143,1.013,1.0125,1.0121,1.0179,1.0179,1.0179,0,0,1.0203,1.0203,1.0187,1.0185,1.0182,1.0186,1.0182,1.0181,1.0181,1.0165,1.0175,1.0165,1.0148,1.0144,1.014,1.0106,1.0114,1.0103,1.0083,1.0071,1.0066,1.0063,1.005,1.0046,1.01,1.01,1.01,0,1.0184,1.017,1.0178,1.0166,1.0161,1.0175,1.0159,1.0156,1.015,1.0146,1.0156,1.0134,1.0132,1.011,1.0102,1.0098,1.0094,1.0103,1.0067,1.0063,1.006,1.0048,1.0043,1.0099,1.0099,1.0099,1.0099,0,1.0147,1.0136,1.0124,1.0119,1.0114,1.0099,1.0105,1.0098,1.0104,1.0106,1.0089,1.0087,1.0077,1.0073,1.0078,1.0051,1.0056,1.0066,1.0081,1.0053,1.0042,1.0038,1.0097,1.0098,1.0098,1.0098,0,0,1.0098,1.0099,1.0095,1.0092,1.0091,1.0082,1.0069,1.0061,1.0054,1.005,1.0038,1.0024,1.0033,1.0028,1.0033,1.0022,0.9994,1.0033,1.0033,1.0025,0.9965,0.9957,0.9951,1.0,0.9999,0.9999,0.9965,0,1.0066,1.0043,1.0051,1.0027,1.0017,1.0031,1.0019,1.0016,1.0017,1.0009,1.001,0.9999,1.0013,1.001,1.0,1.0,0.9982,1.0003,0.9988,0.9987,0.9988,0.9946,0.9937,0.9905,0.996,0.996,0.9959,0,1.0024,1.0019,0.9995,0.9995,0.9991,0.998,0.9974,0.9966,0.9962,0.9964,0.9959,0.9967,0.9952,0.9969,0.9949,0.9962,0.9957,0.9956,0.9955,0.9953,0.9971,0.9942,0.9895,0.989,0.9953,0.9953,0.9954,0,0.999,0.9978,0.9962,0.996,0.996,0.9952,0.9951,0.9949,0.9944,0.9938,0.9934,0.9926,0.9922,0.9915,0.992,0.9931,0.9898,0.9915,0.9899,0.9898,0.989,0.9891,0.9842,0.9888,0.9888,0.9888,0.9889,0,0.9952,0.9937,0.9947,0.9937,0.992,0.9929,0.9911,0.9912,0.991,0.99,0.9911,0.9901,0.9908,0.9898,0.9902,0.9884,0.9882,0.9883,0.9884,0.9881,0.9881,0.9877,0.9879,0.9887,0.9887,0.9888,0.9888,0,0.9912,0.9918,0.9901,0.9903,0.9903,0.989,0.9892,0.9882,0.9885,0.9872,0.9869,0.9873,0.9862,0.9867,0.9855,0.9857,0.9835,0.9839,0.9836,0.9837,0.982,0.9821,0.9766,0.9758,0.9811,0.981,0.981,0,0.9887,0.9875,0.9876,0.9871,0.987,0.9861,0.9856,0.9864,0.9858,0.9854,0.9845,0.9835,0.9828,0.981,0.9811,0.9802,0.9806,0.9787,0.9804,0.9802,0.9805,0.9805,0.9803,0.9783,0.9783,0.9782,0.9782,0,0.9841,0.9845,0.9838,0.9832,0.9826,0.9822,0.9818,0.9813,0.9821,0.9814,0.9803,0.9798,0.9787,0.9777,0.9769,0.9767,0.9775,0.9777,0.9772,0.9769,0.9767,0.9767,0.9826,0.9777,0.9778,0.9778,0.9778,0.9779,0.9807,0.9798,0.9797,0.9789,0.9787,0.9784,0.9775,0.9777,0.9769,0.9761,0.9766,0.9754,0.9751,0.9742,0.9739,0.9729,0.9736,0.973,0.9728,0.9726,0.9724,0.977,0.9728,0.9728,0.9728,0.9728,0.9728,0,0.9761,0.9762,0.9755,0.975,0.9743,0.9753,0.975,0.9743,0.9733,0.973,0.9723,0.9711,0.9701,0.9702,0.9693,0.9685,0.9688,0.9682,0.9682,0.9682,0.9718,0.9722,0.968,0.968,0.968,0.968,0.968,0.968,0.9737,0.9721,0.9725,0.9709,0.9709,0.9698,0.9695,0.9692,0.9689,0.9676,0.9669,0.967,0.9668,0.9659,0.9651,0.9651,0.9647,0.9639,0.9641,0.9674,0.9679,0.9684,0.9688,0.9638,0.9638,0.9605,0.9605,0.9605]},{"header":{"parameterUnit":"m.s-1","parameterCategory":1,"la1":30.2991,"la2":30.254,"lo1":-89.0895,"lo2":-89.0444,"dy":0.0017,"dx":0.0017,"nx":28,"ny":28,"refTime":"2025-09-17T03:00:00:Z","depth":0,"parameterNumber":3,"parameterNumberName":"V-component_of_WINDS"},"data":[0,0,0,0,0,0,0,0,0,0,0,0,0,0,0,0,0,0,0,0,0,0,0,0,0,0,0,0,0,0,0,0,0,0,0,0,0,0,0,0,0,0,0,0,0,0,0,0,0,0,0,0,0,0,0,0,0,0,-1.2118,-1.2119,0,-1.2165,-1.2166,-1.2166,-1.2162,-1.2162,-1.2161,-1.216,-1.2208,-1.221,-1.2212,0,0,0,0,0,0,0,0,0,0,0,0,0,-1.2027,-1.2028,-1.2118,-1.2119,-1.212,-1.2165,-1.2166,-1.2166,-1.2163,-1.2162,-1.2161,-1.216,-1.2208,-1.221,-1.2212,0,0,0,0,0,0,0,0,0,0,0,0,0,-1.2069,-1.2029,-1.2118,-1.2123,-1.2124,-1.2165,-1.2166,-1.2167,-1.2163,-1.2162,-1.2161,-1.216,-1.2207,-1.221,-1.2213,-1.2252,0,0,-1.2222,-1.2223,0,0,0,0,0,0,0,0,-1.2067,-1.2073,-1.2122,-1.2123,-1.2124,-1.2157,-1.2151,-1.2195,-1.2163,-1.2148,-1.216,-1.2159,-1.2192,-1.2196,-1.2207,-1.2254,-1.2256,-1.2222,-1.2224,-1.2225,-1.2226,0,0,0,0,0,0,0,-1.2064,-1.2071,-1.2137,-1.2123,-1.2124,-1.2123,-1.2128,-1.216,-1.2176,-1.2149,-1.2149,-1.2155,-1.2193,-1.2205,-1.2208,-1.2257,-1.2222,-1.2224,-1.2226,-1.2227,-1.2341,-1.2342,0,0,0,0,0,0,-1.206,-1.2068,-1.2135,-1.2138,-1.2092,-1.2126,-1.2131,-1.2147,-1.2175,-1.2178,-1.2156,-1.2154,-1.22,-1.2205,-1.221,-1.226,-1.2225,-1.2228,-1.2229,-1.2339,-1.2341,-1.2342,0,0,0,0,0,0,-1.2058,-1.2066,-1.2134,-1.2103,-1.2112,-1.2129,-1.2147,-1.2149,-1.2161,-1.218,-1.2183,-1.2165,-1.2199,-1.2206,-1.2242,-1.2261,-1.2229,-1.2232,-1.2338,-1.234,-1.2342,-1.2358,0,0,0,0,0,0,-1.2055,-1.2065,-1.208,-1.2104,-1.2114,-1.2164,-1.2148,-1.2151,-1.2166,-1.2165,-1.2189,-1.2192,-1.2199,-1.2238,-1.2245,-1.2265,-1.2234,-1.2336,-1.2339,-1.2341,-1.2355,-1.236,-1.2364,0,0,0,0,0,-1.2052,-1.2082,-1.2081,-1.2089,-1.2132,-1.2166,-1.2171,-1.2178,-1.2167,-1.2183,-1.2195,-1.2192,-1.2258,-1.2242,-1.225,-1.227,-1.2335,-1.2338,-1.2341,-1.2354,-1.2359,-1.2363,0,0,0,0,0,0,-1.206,-1.2085,-1.2084,-1.2123,-1.2142,-1.2165,-1.2184,-1.2183,-1.2206,-1.2204,-1.2212,-1.2218,-1.2254,-1.2266,-1.2247,-1.2311,-1.2295,-1.23,-1.2302,-1.2307,-1.2311,-1.2308,-1.2236,0,0,0,0,0,-1.2066,-1.2091,-1.2112,-1.2144,-1.2154,-1.2167,-1.2182,-1.2186,-1.2206,-1.2214,-1.2229,-1.225,-1.2275,-1.2292,-1.2316,-1.2357,-1.2363,-1.2375,-1.2379,-1.2382,-1.2387,-1.2411,-1.2417,-1.2352,-1.2352,-1.2352,0,0,-1.2079,-1.2096,-1.2111,-1.2146,-1.2161,-1.2187,-1.2174,-1.2202,-1.2222,-1.2219,-1.2254,-1.2266,-1.2289,-1.2328,-1.2346,-1.2339,-1.2406,-1.2386,-1.2388,-1.2391,-1.2415,-1.2421,-1.2426,-1.2354,-1.2353,-1.2353,0,0,-1.2117,-1.2131,-1.2161,-1.2177,-1.2201,-1.221,-1.2217,-1.224,-1.2248,-1.2284,-1.2283,-1.2306,-1.2349,-1.2366,-1.2381,-1.2426,-1.2424,-1.2434,-1.2455,-1.2479,-1.2484,-1.2489,-1.2506,-1.2513,-1.2438,-1.2438,-1.2438,0,-1.213,-1.2169,-1.2176,-1.2204,-1.222,-1.2219,-1.225,-1.2265,-1.2295,-1.2306,-1.2298,-1.2353,-1.2368,-1.2413,-1.2424,-1.2435,-1.2444,-1.2431,-1.2483,-1.2487,-1.2492,-1.2509,-1.2515,-1.2439,-1.2439,-1.2439,-1.2439,0,-1.2185,-1.2212,-1.2233,-1.2263,-1.2281,-1.231,-1.2322,-1.234,-1.2343,-1.2353,-1.239,-1.2409,-1.2437,-1.2448,-1.245,-1.2493,-1.2488,-1.2481,-1.2465,-1.2499,-1.2515,-1.2522,-1.2441,-1.244,-1.244,-1.244,0,0,-1.2229,-1.2263,-1.2271,-1.2285,-1.2312,-1.2333,-1.2363,-1.2391,-1.2407,-1.2428,-1.2454,-1.2492,-1.2486,-1.2502,-1.2506,-1.2527,-1.2564,-1.2518,-1.2518,-1.2527,-1.2614,-1.262,-1.2627,-1.2563,-1.2564,-1.2565,-1.2613,0,-1.227,-1.2323,-1.233,-1.2377,-1.2403,-1.2403,-1.2429,-1.2449,-1.2459,-1.2483,-1.2495,-1.2522,-1.2511,-1.2521,-1.2542,-1.2555,-1.2582,-1.2552,-1.2588,-1.2589,-1.2583,-1.2636,-1.2642,-1.2686,-1.2619,-1.262,-1.2621,0,-1.2325,-1.2349,-1.2398,-1.2423,-1.2434,-1.2457,-1.2485,-1.2508,-1.253,-1.2537,-1.2556,-1.2558,-1.259,-1.2572,-1.2617,-1.2596,-1.2612,-1.2621,-1.2622,-1.2627,-1.2608,-1.2643,-1.27,-1.2707,-1.263,-1.263,-1.2629,0,-1.2354,-1.2398,-1.2434,-1.2446,-1.2475,-1.2492,-1.2505,-1.2526,-1.2544,-1.2568,-1.2579,-1.2607,-1.2622,-1.2643,-1.2653,-1.264,-1.2698,-1.2681,-1.2705,-1.2705,-1.2718,-1.2717,-1.278,-1.2726,-1.2726,-1.2726,-1.2725,0,-1.24,-1.243,-1.2447,-1.2469,-1.2504,-1.2513,-1.2547,-1.256,-1.2579,-1.2604,-1.2605,-1.2629,-1.264,-1.2666,-1.2674,-1.2711,-1.2717,-1.2724,-1.2726,-1.2725,-1.2724,-1.2735,-1.2733,-1.2727,-1.2727,-1.2727,-1.2726,0,-1.2438,-1.245,-1.249,-1.2514,-1.2522,-1.2546,-1.2568,-1.259,-1.2601,-1.2633,-1.264,-1.2658,-1.2688,-1.27,-1.2737,-1.2742,-1.2785,-1.2784,-1.2777,-1.2778,-1.2802,-1.28,-1.2875,-1.2886,-1.2824,-1.2824,-1.2825,0,-1.2467,-1.2491,-1.2519,-1.2536,-1.255,-1.2577,-1.2595,-1.2604,-1.2623,-1.2652,-1.2671,-1.2701,-1.2726,-1.2775,-1.2791,-1.2819,-1.282,-1.2844,-1.2824,-1.2822,-1.2822,-1.2821,-1.2824,-1.2848,-1.2849,-1.2849,-1.2849,0,-1.2518,-1.2523,-1.2549,-1.2577,-1.2599,-1.2622,-1.2644,-1.2658,-1.2671,-1.2692,-1.2723,-1.2743,-1.2781,-1.2812,-1.2841,-1.2855,-1.2855,-1.2856,-1.2863,-1.2862,-1.2859,-1.2863,-1.2789,-1.2854,-1.2854,-1.2853,-1.2853,-1.2853,-1.2554,-1.2576,-1.2599,-1.2628,-1.2646,-1.2667,-1.2689,-1.2703,-1.2729,-1.2762,-1.2766,-1.28,-1.2823,-1.2864,-1.2879,-1.2906,-1.29,-1.291,-1.2913,-1.2916,-1.2918,-1.2853,-1.2911,-1.2911,-1.2911,-1.2911,-1.2911,0,-1.2606,-1.2621,-1.2648,-1.2679,-1.2703,-1.27,-1.2725,-1.2745,-1.2775,-1.2797,-1.2822,-1.2858,-1.2889,-1.2907,-1.2938,-1.2956,-1.2957,-1.2964,-1.2963,-1.2967,-1.2921,-1.2912,-1.2963,-1.2963,-1.2963,-1.2963,-1.2963,-1.2963,-1.2636,-1.2674,-1.2682,-1.2728,-1.2744,-1.2777,-1.2792,-1.2812,-1.2829,-1.2871,-1.2896,-1.2908,-1.2929,-1.2961,-1.2989,-1.2994,-1.3006,-1.3013,-1.3018,-1.2975,-1.297,-1.2965,-1.2957,-1.3016,-1.3016,-1.3062,-1.3062,-1.3062]}]]